Theta_e
316 316 316 315 316 316 317 318 318 317 315 310 308 307 307 307 309 308 305 308 315 316 315 314 312 310 309 308 308 308 306 305 305 304 304 304 304 304 304 303 303 303 303
315 316 316 316 316 316 317 319 318 317 316 312 309 307 306 307 307 309 308 303 310 315 316 315 313 311 309 308 308 306 305 304 304 303 303 303 303 303 302 302 302 301 301
315 316 316 317 317 318 318 318 319 318 316 314 311 308 307 306 307 307 309 304 305 314 315 315 314 313 311 310 308 306 304 303 302 302 302 303 302 302 301 301 300 300 300
318 317 319 320 319 320 320 319 319 318 317 315 313 309 306 306 306 307 308 307 306 307 308 312 313 311 310 308 308 305 304 302 301 301 301 302 301 301 300 300 300 299 299
322 322 322 323 323 322 322 321 319 318 317 315 313 310 307 306 306 306 307 308 308 308 308 312 312 310 305 300 302 304 301 300 300 301 301 301 301 301 300 300 299 299 299
322 323 323 323 324 324 322 322 320 318 318 317 314 312 307 306 306 306 306 307 307 307 306 307 307 304 301 300 300 302 300 301 300 300 300 300 300 299 299 298 298 298 299
320 323 322 322 323 324 323 322 320 319 319 318 316 309 308 307 307 307 306 306 306 306 305 304 303 302 301 301 300 300 302 302 301 300 299 298 298 297 297 297 297 296 297
321 319 319 322 323 325 324 322 321 320 319 318 313 310 309 309 308 308 306 305 305 305 303 302 302 302 302 301 300 299 302 302 301 299 298 296 296 296 295 295 295 296 296
316 319 320 322 324 324 324 323 322 321 319 318 314 313 307 308 308 309 308 305 305 304 303 302 302 302 302 300 300 300 300 300 300 298 297 296 295 294 294 294 294 294 294
319 319 321 324 324 324 324 324 323 321 320 318 314 311 311 310 306 307 307 307 306 305 304 303 302 302 302 301 300 300 300 299 298 297 297 296 295 293 293 292 293 293 293
318 321 324 325 324 324 324 325 324 322 320 319 317 313 311 309 308 307 306 307 309 308 305 303 303 302 302 302 301 300 299 298 298 297 297 296 294 293 291 293 292 292 292
320 318 323 325 325 324 325 325 324 323 322 319 318 315 314 310 307 307 307 306 304 305 305 305 305 303 303 302 301 300 299 298 298 297 297 295 294 293 293 292 292 291 290
320 319 320 324 324 325 325 325 324 322 321 319 317 316 314 311 309 308 306 303 302 302 303 304 303 302 301 301 299 299 298 298 298 297 296 295 294 293 292 292 291 290 289
321 321 322 325 325 325 326 325 324 322 320 318 317 316 314 310 310 309 308 303 302 302 303 304 304 302 302 302 301 298 298 298 297 296 295 294 294 292 291 291 291 290 289
321 322 323 325 326 325 325 324 322 320 319 318 316 315 310 310 309 308 306 304 304 303 303 302 301 301 299 299 298 297 297 297 297 296 295 294 293 292 291 290 291 290 288
324 325 326 325 326 325 325 323 321 319 317 316 313 309 308 307 305 304 303 303 302 301 302 300 300 300 299 299 298 297 295 295 295 295 294 294 293 292 290 289 289 288 288
324 324 325 325 325 324 322 321 319 317 315 313 308 308 307 305 303 303 302 301 300 300 300 300 299 299 298 298 298 297 295 295 294 294 294 293 293 292 290 289 288 287 286
325 325 325 325 324 323 321 318 316 314 311 308 307 305 304 302 302 301 301 300 300 300 299 298 298 298 298 298 298 298 297 297 297 296 295 293 293 291 290 289 288 287 286
323 325 324 323 321 319 318 315 314 312 309 307 306 304 302 301 301 300 300 299 299 299 299 298 298 298 298 298 297 297 297 296 296 296 296 294 292 292 291 290 288 287 286
325 321 321 320 318 316 314 312 309 307 305 304 302 301 300 300 300 299 299 298 297 297 297 297 296 296 296 296 296 295 295 294 294 294 294 294 293 293 290 290 288 286 286
321 321 317 314 312 310 309 307 306 305 302 301 299 300 300 299 298 297 297 297 297 296 296 295 294 294 293 293 292 293 293 293 293 293 293 293 290 290 290 288 287 287 286
314 314 311 309 307 306 305 304 303 302 299 299 299 299 297 296 296 295 294 292 291 290 290 291 291 291 291 291 291 291 291 290 289 292 291 291 291 290 289 289 287 285 285
309 308 305 305 304 303 302 301 299 299 299 299 297 296 294 292 292 291 291 290 289 286 282 282 286 287 288 288 289 289 290 289 290 291 291 290 291 290 290 287 286 285 284
305 303 302 301 300 299 299 299 299 298 297 294 293 292 291 289 288 286 285 282 281 281 282 283 283 283 283 283 283 284 285 286 288 289 290 289 290 289 289 286 285 285 284
300 300 300 300 299 299 298 297 295 293 292 291 290 288 287 284 282 280 280 281 282 282 283 283 283 284 284 284 284 284 284 285 286 288 288 288 288 287 286 286 286 285 284
301 300 300 299 299 297 296 294 293 292 291 288 286 283 281 280 279 279 282 281 281 282 281 281 281 282 282 282 283 283 284 284 285 286 287 286 286 285 285 286 285 284 284
Wind_Speed
31 24 23 21 20 17 15 12 12 11 9 11 11 7 8 8 7 7 8 9 13 12 11 10 11 10 9 8 7 6 5 5 6 7 7 8 7 7 8 9 10 11 11
28 24 22 21 20 17 14 11 12 11 9 8 9 8 7 6 5 6 7 9 14 14 13 11 9 8 7 6 6 4 2 2 3 5 5 5 5 5 6 9 10 10 11
27 25 22 21 19 17 15 13 14 12 10 10 8 7 8 6 6 7 7 11 13 14 13 11 10 9 7 6 7 4 2 2 2 3 3 2 4 5 6 8 9 11 13
23 23 20 20 19 19 18 16 20 16 12 13 11 10 10 10 8 8 9 11 12 9 10 12 13 12 11 7 6 5 4 3 3 3 3 3 4 5 6 8 10 11 13
19 18 21 19 20 22 22 22 22 19 17 16 15 13 13 14 12 10 12 13 11 10 13 16 15 12 9 7 7 8 6 4 4 2 2 4 5 6 7 10 11 12 12
19 19 20 17 21 20 24 25 24 21 19 17 16 17 16 18 16 15 16 15 14 13 15 16 16 14 11 10 10 10 8 7 5 3 3 4 5 6 9 11 12 13 13
22 21 20 21 20 21 24 25 24 22 20 17 15 16 18 18 18 19 18 20 20 19 20 19 17 16 14 14 14 14 12 9 7 6 5 4 4 7 10 11 13 14 16
23 25 24 25 25 23 24 27 27 25 23 21 15 5 3 11 22 24 21 23 22 20 21 21 18 17 17 17 17 17 15 12 11 12 11 10 9 8 9 12 14 15 17
27 29 28 30 28 27 27 30 30 29 28 24 24 10 2 4 3 16 29 25 24 23 24 22 20 20 19 18 17 18 18 18 17 17 16 14 12 11 10 12 15 16 17
31 32 34 34 33 32 33 33 33 33 32 27 23 24 11 4 3 2 9 21 23 22 26 26 25 23 22 20 21 22 20 22 24 20 18 16 13 13 11 12 15 16 17
35 34 38 36 35 34 36 36 35 35 36 29 28 13 20 12 8 4 3 3 11 24 25 25 25 25 24 24 24 24 22 21 21 22 19 16 15 15 14 12 14 17 19
39 41 39 40 37 36 36 37 37 34 36 34 29 26 22 13 12 7 3 8 9 7 20 20 25 25 25 26 26 26 25 22 23 24 22 20 19 17 14 13 14 16 18
41 44 43 45 43 40 38 37 35 34 31 32 32 28 26 25 18 12 6 2 7 8 10 18 17 16 18 23 22 27 27 26 27 27 26 22 22 20 17 15 15 16 16
43 44 42 41 40 35 36 31 34 31 30 26 25 26 26 25 23 24 17 11 3 9 8 16 17 21 26 27 29 30 30 30 31 30 28 27 26 25 21 19 18 17 17
42 36 39 37 36 32 32 35 32 28 26 24 24 24 25 23 20 18 15 16 11 2 4 11 16 16 17 20 21 24 31 33 32 32 31 31 30 28 23 22 20 19 19
28 25 26 29 33 32 37 31 27 26 24 21 22 25 21 18 16 14 12 11 13 13 5 8 13 18 22 23 23 22 24 27 31 32 35 35 34 31 27 25 23 20 21
33 25 23 27 28 26 27 27 25 24 22 23 23 21 18 16 14 11 9 10 15 18 13 16 19 21 21 23 24 26 24 28 31 33 36 39 38 36 32 29 26 22 22
24 22 17 16 19 22 24 23 23 21 22 21 20 18 16 13 12 9 8 13 17 21 19 16 18 22 27 26 30 31 34 37 40 41 37 41 43 38 37 32 28 25 23
21 23 20 19 21 22 23 23 21 19 18 17 17 16 14 12 10 10 11 14 16 19 22 21 21 24 28 29 31 32 31 32 36 41 43 40 44 38 42 34 31 27 23
27 24 19 21 22 22 20 19 17 17 17 16 14 13 12 9 11 11 13 14 16 19 22 26 24 24 23 26 27 28 32 36 37 37 37 36 36 42 38 31 32 24 25
27 22 22 21 21 20 20 19 17 18 16 14 13 10 8 7 9 10 13 17 19 23 25 22 22 22 22 25 24 27 30 34 37 37 35 33 25 24 26 25 30 31 23
22 21 20 20 20 18 17 17 17 16 15 14 10 6 4 4 7 9 7 5 6 10 13 15 17 19 23 24 25 28 27 22 14 28 27 32 30 30 27 35 32 25 22
23 21 21 20 19 18 17 17 17 16 12 8 6 5 2 2 4 7 10 13 16 19 16 17 19 20 24 23 24 27 25 26 28 29 27 26 26 29 33 29 25 22 20
25 25 23 22 22 21 19 17 15 13 12 9 7 5 4 4 7 12 15 17 18 19 18 18 20 25 26 28 28 29 30 33 31 33 29 20 27 32 30 26 22 19 18
29 28 25 23 22 20 17 17 16 15 14 10 5 3 4 6 9 11 13 15 18 19 19 19 21 23 25 26 25 27 24 21 23 25 26 27 25 26 26 25 20 18 16
27 26 23 20 21 21 18 16 15 13 10 6 2 2 4 5 7 9 10 13 16 19 23 24 24 25 24 26 26 25 29 22 22 22 22 24 21 16 5 17 17 16 14
Wind_Direction
154 148 154 157 163 165 155 152 150 150 151 142 136 147 140 143 138 129 129 155 152 158 155 152 147 141 137 127 121 118 88 51 37 29 23 29 32 33 20 18 22 20 16
153 168 167 171 175 178 175 170 173 176 171 160 152 154 152 150 159 151 147 161 181 177 171 166 161 159 159 155 153 157 119 71 30 14 9 18 14 12 16 13 8 5 1
166 172 176 183 186 184 193 192 194 188 182 178 177 184 187 183 181 185 184 173 178 183 186 183 180 186 192 207 193 200 234 304 341 348 344 341 345 349 354 359 358 354 351
171 180 186 191 196 199 205 207 198 195 200 201 198 191 189 198 202 213 198 187 180 187 198 207 206 197 203 213 218 230 243 280 298 308 304 326 334 328 335 341 341 340 338
175 191 205 213 206 218 218 209 202 204 199 207 211 208 203 204 209 225 217 207 210 212 204 210 218 224 228 245 244 237 251 270 293 287 309 329 329 323 325 326 325 323 322
196 204 205 209 213 214 211 205 205 203 211 221 220 227 219 216 212 217 218 226 230 228 222 216 217 220 230 239 246 234 237 265 269 242 297 320 321 324 323 320 317 315 313
210 210 216 221 223 225 206 210 208 212 218 218 219 218 225 221 220 225 227 221 223 227 226 224 229 240 240 243 247 236 236 248 246 243 256 279 300 316 319 316 313 310 306
221 223 229 230 228 228 220 217 217 218 226 219 206 177 194 233 234 232 226 223 223 226 214 217 225 234 242 244 241 238 246 242 238 228 254 267 280 297 305 304 302 300 301
236 236 239 232 229 231 231 225 222 223 221 218 214 196 91 234 227 231 227 225 228 229 229 233 238 244 240 242 239 241 247 232 218 234 251 262 283 294 295 296 295 296 298
238 241 240 234 234 233 234 233 230 227 225 221 220 225 225 170 188 274 230 224 232 237 237 232 235 236 242 243 246 246 236 233 233 241 244 257 278 292 293 294 297 297 297
237 242 237 235 237 237 236 238 232 229 231 226 222 215 227 218 198 175 242 246 256 248 240 237 237 241 245 242 243 242 239 240 245 242 245 255 274 285 291 286 292 296 296
239 240 241 239 238 238 237 236 236 235 233 231 233 228 226 226 202 198 188 226 232 245 239 242 253 249 248 249 249 249 251 248 246 239 244 251 262 266 263 273 286 293 294
236 236 238 239 238 237 238 240 238 232 231 231 231 231 236 239 227 208 207 216 237 234 233 235 249 261 257 246 253 262 255 256 244 241 243 251 255 261 265 267 276 284 289
237 236 237 235 234 244 241 245 241 232 231 231 232 236 235 225 228 228 212 194 228 236 243 261 276 258 264 267 268 260 258 249 241 241 244 248 254 259 264 268 261 267 277
240 239 239 235 233 241 245 237 228 224 228 229 233 235 220 220 225 225 230 225 221 245 255 259 269 272 257 263 271 268 255 250 248 246 249 249 252 254 256 258 250 257 265
240 234 236 233 238 248 238 232 220 223 227 227 223 207 213 210 211 215 220 254 263 255 263 239 257 277 283 278 277 276 263 262 256 259 254 251 253 252 254 253 253 261 256
239 246 245 236 232 239 227 219 219 219 217 216 207 210 207 204 206 218 243 272 281 270 257 270 268 276 282 273 272 269 266 264 266 267 263 255 253 252 251 248 252 259 258
242 236 233 220 220 218 215 212 212 212 211 205 201 201 206 197 208 243 266 279 280 271 270 274 276 276 279 281 277 278 279 281 280 276 275 263 254 252 258 249 251 253 258
245 219 201 199 201 203 205 210 216 210 206 205 206 201 202 198 232 241 272 283 283 283 281 281 280 279 275 279 281 284 286 288 285 280 277 271 256 262 251 252 254 251 257
222 201 200 203 202 201 199 197 193 190 191 191 195 199 196 238 244 268 285 286 284 281 282 283 280 279 281 285 284 283 282 283 282 282 278 270 264 268 247 253 259 258 263
194 193 192 190 187 184 182 181 179 177 177 177 181 197 232 254 272 284 287 286 287 291 290 287 287 291 287 288 279 286 278 279 279 278 276 270 246 243 257 246 246 262 252
175 176 175 170 166 168 164 167 169 167 167 172 190 212 232 276 281 286 296 305 333 327 312 304 299 292 290 290 295 285 278 277 278 283 266 257 248 248 248 250 247 245 256
166 164 160 157 154 154 156 153 155 161 168 174 181 199 206 211 280 294 298 299 302 304 314 307 293 289 294 296 298 297 282 269 265 267 265 249 247 252 255 241 235 249 261
160 154 148 150 149 150 153 158 164 165 163 160 162 172 208 275 300 306 307 309 309 310 317 315 312 309 305 302 291 286 287 282 283 273 256 246 247 247 249 234 244 256 255
148 148 150 153 153 155 168 166 163 161 159 157 172 223 273 295 306 314 323 329 326 328 329 321 314 312 312 307 305 301 293 289 281 269 255 238 238 238 237 238 248 257 238
148 154 158 162 163 155 164 164 169 166 164 168 192 280 306 312 321 324 331 337 338 334 329 324 317 316 320 316 316 298 288 277 286 279 269 227 229 213 233 249 247 213 230